Temp
-7 -7 -7 -7 -8 -8 -8 -7 -8 -8 -8 -8 -9 -9 -9 -8 -8 -8 -8 -9 -9 -9 -9 -9 -9 -9 -9 -9 -9 -9 -9 -9 -9 -9 -9 -10 -10 -9 -9 -9 -9 -9
-7 -7 -7 -7 -8 -8 -7 -7 -7 -8 -8 -8 -8 -8 -8 -8 -8 -8 -8 -8 -8 -8 -8 -8 -9 -9 -9 -9 -9 -9 -9 -9 -9 -9 -9 -9 -9 -9 -9 -9 -9 -9
-7 -7 -7 -8 -8 -8 -8 -8 -8 -8 -8 -8 -8 -8 -8 -8 -8 -8 -8 -8 -8 -8 -8 -8 -9 -9 -9 -9 -9 -9 -9 -9 -9 -9 -9 -9 -9 -9 -9 -9 -9 -8
-7 -7 -7 -8 -8 -8 -8 -8 -8 -8 -8 -8 -8 -8 -8 -8 -8 -8 -8 -8 -8 -8 -8 -9 -9 -9 -9 -9 -9 -9 -9 -9 -9 -9 -9 -9 -9 -9 -9 -8 -8 -8
-7 -7 -7 -7 -8 -8 -8 -8 -8 -8 -8 -8 -8 -8 -8 -8 -8 -8 -8 -8 -8 -8 -8 -9 -9 -9 -9 -9 -9 -9 -9 -9 -9 -9 -9 -9 -9 -9 -9 -8 -8 -8
-7 -7 -7 -7 -8 -8 -8 -8 -8 -8 -8 -8 -8 -8 -8 -8 -8 -8 -8 -8 -8 -8 -8 -8 -9 -9 -9 -9 -9 -9 -9 -9 -9 -9 -9 -9 -8 -8 -8 -8 -8 -8
-7 -7 -7 -7 -7 -7 -8 -8 -8 -8 -8 -8 -8 -8 -8 -8 -8 -8 -8 -8 -8 -8 -8 -8 -8 -8 -9 -9 -9 -9 -8 -8 -8 -8 -8 -8 -8 -8 -8 -8 -8 -8
-7 -7 -7 -7 -7 -7 -7 -7 -7 -8 -8 -8 -8 -8 -8 -8 -8 -8 -8 -8 -8 -8 -8 -8 -8 -8 -8 -8 -8 -8 -8 -8 -8 -8 -8 -8 -8 -8 -8 -8 -8 -8
-7 -7 -7 -7 -7 -7 -7 -7 -7 -7 -7 -8 -8 -8 -8 -8 -8 -8 -8 -8 -8 -8 -8 -8 -8 -8 -8 -8 -8 -8 -8 -8 -8 -8 -8 -8 -8 -8 -8 -8 -8 -8
-8 -8 -7 -7 -7 -7 -8 -7 -7 -7 -7 -7 -7 -7 -7 -8 -8 -8 -8 -8 -8 -8 -8 -8 -8 -8 -8 -8 -8 -8 -8 -8 -8 -8 -8 -8 -8 -8 -8 -8 -8 -8
-8 -8 -8 -8 -7 -7 -7 -7 -7 -8 -7 -7 -7 -7 -7 -7 -8 -8 -8 -8 -8 -8 -8 -8 -8 -8 -7 -8 -8 -8 -8 -8 -8 -8 -8 -8 -8 -8 -8 -8 -8 -8
-7 -8 -8 -8 -8 -7 -7 -7 -7 -7 -7 -7 -7 -7 -7 -7 -7 -8 -8 -8 -8 -8 -8 -8 -8 -8 -8 -8 -8 -8 -8 -8 -8 -8 -8 -8 -8 -8 -8 -8 -8 -8
-7 -7 -8 -8 -8 -8 -8 -7 -7 -7 -7 -7 -7 -7 -7 -7 -7 -7 -7 -8 -8 -8 -8 -8 -8 -8 -8 -8 -8 -8 -7 -7 -7 -7 -7 -8 -8 -8 -8 -8 -8 -8
-7 -7 -7 -7 -7 -7 -8 -8 -8 -7 -7 -7 -7 -7 -7 -7 -7 -7 -7 -7 -7 -8 -8 -8 -8 -8 -8 -7 -7 -7 -7 -7 -7 -7 -7 -7 -7 -7 -8 -8 -8 -8
-7 -7 -7 -7 -7 -7 -7 -7 -8 -8 -7 -7 -7 -7 -7 -7 -7 -7 -7 -7 -7 -7 -7 -7 -7 -7 -7 -7 -7 -7 -7 -7 -7 -7 -7 -7 -7 -7 -7 -7 -7 -7
-8 -8 -7 -7 -7 -7 -7 -7 -7 -8 -8 -7 -7 -7 -7 -7 -7 -7 -7 -7 -7 -7 -7 -7 -7 -7 -7 -7 -7 -7 -7 -7 -7 -7 -7 -7 -7 -7 -7 -7 -7 -7
-8 -8 -8 -7 -7 -7 -7 -7 -7 -7 -8 -8 -7 -7 -7 -7 -7 -7 -7 -7 -7 -7 -7 -7 -7 -7 -7 -7 -7 -7 -7 -7 -8 -8 -7 -7 -7 -7 -7 -7 -7 -7
-8 -8 -8 -8 -8 -7 -7 -7 -7 -7 -7 -7 -7 -7 -7 -7 -7 -7 -7 -7 -7 -7 -7 -7 -7 -7 -7 -7 -7 -7 -7 -8 -8 -8 -7 -7 -7 -7 -7 -7 -7 -7
-8 -8 -8 -8 -8 -8 -7 -7 -7 -7 -7 -7 -7 -7 -7 -7 -7 -7 -7 -7 -7 -7 -7 -7 -7 -7 -7 -7 -7 -7 -7 -7 -7 -7 -7 -7 -7 -7 -7 -7 -7 -7
-8 -8 -8 -8 -8 -8 -8 -7 -7 -7 -7 -7 -7 -7 -7 -7 -7 -7 -7 -7 -7 -7 -7 -7 -7 -7 -7 -7 -7 -7 -7 -7 -7 -7 -7 -7 -7 -7 -7 -7 -7 -7
-7 -8 -8 -8 -8 -8 -8 -7 -7 -7 -7 -7 -7 -7 -7 -7 -7 -7 -7 -7 -7 -7 -7 -7 -7 -7 -7 -7 -7 -7 -7 -7 -7 -7 -7 -7 -7 -7 -6 -6 -7 -7
-7 -7 -7 -7 -7 -7 -7 -7 -7 -7 -7 -7 -7 -7 -7 -7 -7 -7 -7 -7 -6 -6 -6 -7 -7 -7 -7 -7 -7 -7 -7 -7 -7 -7 -7 -7 -7 -7 -6 -6 -7 -7
-7 -7 -8 -7 -7 -7 -7 -7 -7 -7 -7 -7 -6 -7 -7 -7 -7 -7 -7 -7 -7 -6 -6 -6 -6 -6 -6 -6 -7 -6 -6 -7 -7 -7 -7 -7 -7 -7 -6 -6 -7 -7
-7 -8 -8 -8 -7 -7 -7 -7 -7 -7 -7 -7 -7 -7 -7 -7 -7 -7 -7 -7 -7 -7 -6 -6 -6 -6 -6 -6 -6 -6 -6 -6 -6 -6 -7 -7 -7 -6 -6 -7 -7 -7
-8 -8 -8 -8 -8 -7 -7 -7 -7 -7 -7 -7 -7 -7 -7 -7 -7 -7 -7 -7 -6 -7 -7 -6 -6 -6 -6 -6 -6 -6 -6 -6 -6 -6 -6 -6 -6 -6 -6 -7 -7 -7
-8 -8 -8 -8 -8 -8 -7 -7 -7 -7 -7 -7 -7 -7 -7 -7 -7 -7 -7 -7 -6 -6 -6 -6 -6 -6 -6 -6 -6 -6 -6 -6 -6 -6 -6 -6 -6 -6 -6 -7 -7 -7
Height
5877 5878 5880 5881 5881 5882 5884 5885 5887 5889 5891 5893 5895 5897 5898 5899 5901 5902 5904 5906 5907 5908 5910 5911 5913 5914 5915 5916 5917 5918 5918 5919 5920 5921 5922 5923 5924 5925 5926 5927 5927 5927
5879 5880 5881 5882 5883 5884 5885 5886 5887 5889 5891 5894 5896 5897 5898 5899 5901 5902 5904 5905 5907 5908 5909 5911 5911 5912 5913 5914 5915 5916 5917 5917 5918 5920 5921 5922 5923 5924 5925 5926 5926 5926
5881 5882 5883 5884 5884 5885 5885 5886 5887 5889 5892 5894 5896 5897 5898 5899 5900 5902 5903 5904 5906 5907 5908 5909 5909 5910 5911 5913 5914 5914 5915 5916 5917 5918 5920 5921 5922 5923 5924 5924 5925 5925
5881 5882 5884 5885 5886 5886 5886 5887 5888 5890 5892 5894 5896 5897 5897 5898 5900 5901 5902 5903 5904 5905 5906 5907 5908 5909 5910 5911 5912 5913 5914 5915 5916 5917 5919 5920 5921 5922 5922 5923 5923 5923
5881 5883 5884 5886 5887 5888 5888 5889 5889 5890 5892 5893 5895 5896 5897 5898 5899 5900 5901 5902 5902 5903 5905 5906 5907 5908 5909 5910 5911 5912 5912 5914 5915 5916 5917 5918 5919 5920 5920 5921 5921 5922
5881 5882 5884 5886 5887 5888 5889 5890 5890 5891 5892 5893 5895 5896 5897 5897 5898 5899 5900 5901 5901 5902 5903 5905 5906 5907 5908 5909 5910 5911 5912 5913 5914 5915 5916 5917 5918 5918 5918 5919 5920 5920
5881 5882 5884 5885 5886 5888 5889 5890 5891 5891 5892 5893 5895 5896 5897 5898 5898 5899 5899 5900 5901 5902 5903 5904 5905 5906 5907 5908 5909 5910 5911 5912 5913 5914 5915 5916 5916 5916 5917 5917 5918 5919
5880 5882 5883 5885 5886 5887 5888 5889 5890 5890 5891 5893 5894 5896 5897 5897 5898 5899 5899 5900 5901 5902 5902 5903 5904 5905 5906 5907 5908 5909 5910 5911 5912 5913 5913 5914 5914 5914 5915 5916 5917 5918
5879 5881 5882 5884 5885 5886 5888 5888 5889 5890 5890 5891 5893 5894 5895 5896 5897 5898 5898 5899 5900 5901 5901 5902 5903 5904 5905 5906 5906 5907 5908 5909 5910 5911 5912 5912 5913 5913 5914 5915 5916 5916
5878 5880 5881 5883 5884 5886 5887 5888 5888 5889 5890 5890 5891 5893 5894 5895 5896 5896 5897 5898 5898 5899 5900 5901 5902 5903 5903 5904 5905 5906 5906 5907 5908 5909 5910 5911 5911 5912 5913 5913 5914 5915
5877 5879 5880 5882 5883 5884 5886 5887 5888 5889 5889 5890 5890 5891 5892 5893 5894 5895 5895 5896 5897 5898 5899 5900 5901 5901 5902 5903 5903 5904 5905 5906 5906 5907 5908 5909 5910 5911 5911 5912 5913 5913
5875 5877 5879 5880 5882 5883 5885 5886 5887 5888 5888 5889 5889 5890 5891 5892 5893 5893 5894 5894 5895 5896 5897 5898 5899 5900 5901 5901 5902 5903 5904 5904 5905 5906 5907 5908 5909 5909 5910 5911 5911 5912
5874 5875 5876 5878 5880 5881 5883 5884 5886 5887 5887 5888 5888 5889 5889 5890 5891 5892 5893 5893 5894 5895 5896 5897 5898 5899 5899 5900 5901 5902 5902 5903 5904 5905 5906 5907 5907 5908 5909 5909 5910 5911
5873 5874 5875 5876 5878 5879 5881 5882 5884 5885 5886 5886 5887 5887 5888 5889 5890 5890 5891 5892 5893 5894 5894 5895 5896 5897 5898 5899 5900 5900 5901 5902 5903 5904 5904 5905 5906 5907 5908 5908 5909 5910
5871 5873 5874 5875 5876 5877 5879 5880 5882 5883 5884 5885 5886 5886 5887 5887 5888 5889 5890 5891 5891 5892 5893 5894 5895 5896 5897 5898 5899 5900 5900 5901 5902 5903 5903 5904 5905 5906 5907 5907 5908 5909
5869 5871 5872 5873 5874 5876 5877 5878 5880 5881 5882 5883 5884 5885 5886 5886 5887 5887 5888 5889 5890 5891 5892 5893 5894 5895 5896 5897 5898 5899 5899 5900 5901 5902 5902 5903 5904 5905 5905 5906 5907 5908
5867 5868 5870 5871 5873 5874 5875 5876 5877 5879 5881 5881 5883 5884 5885 5885 5886 5886 5887 5888 5888 5889 5891 5891 5893 5894 5895 5896 5897 5898 5898 5899 5900 5901 5901 5902 5903 5904 5904 5905 5906 5907
5864 5865 5866 5868 5870 5871 5872 5873 5874 5877 5879 5880 5881 5882 5883 5884 5885 5886 5886 5887 5887 5888 5889 5890 5891 5893 5894 5895 5896 5897 5897 5898 5899 5899 5900 5901 5902 5903 5903 5904 5905 5905
5860 5862 5863 5864 5866 5868 5869 5870 5871 5873 5876 5878 5879 5880 5881 5882 5883 5884 5885 5886 5887 5887 5888 5889 5890 5891 5892 5893 5894 5895 5896 5897 5898 5898 5899 5900 5901 5902 5902 5903 5903 5903
5857 5858 5860 5861 5862 5864 5866 5867 5868 5870 5872 5874 5876 5877 5879 5880 5881 5882 5883 5884 5885 5886 5887 5888 5889 5889 5890 5891 5892 5893 5894 5895 5897 5897 5898 5899 5900 5901 5901 5901 5901 5901
5853 5855 5856 5857 5859 5860 5862 5863 5865 5867 5869 5871 5872 5874 5876 5877 5878 5879 5879 5880 5881 5882 5884 5885 5886 5887 5889 5890 5891 5892 5893 5894 5895 5896 5897 5898 5899 5899 5900 5900 5900 5900
5849 5851 5853 5854 5856 5857 5859 5860 5862 5864 5865 5866 5868 5870 5872 5873 5874 5875 5876 5877 5878 5878 5880 5881 5883 5884 5885 5887 5888 5889 5890 5892 5893 5894 5895 5896 5897 5897 5898 5898 5898 5899
5846 5848 5849 5851 5852 5854 5856 5857 5859 5860 5861 5862 5864 5866 5867 5869 5871 5872 5873 5874 5874 5875 5876 5877 5879 5880 5882 5884 5885 5886 5888 5890 5891 5892 5893 5894 5895 5895 5895 5896 5896 5897
5844 5845 5846 5848 5849 5851 5853 5854 5855 5856 5857 5858 5860 5863 5864 5866 5867 5868 5869 5870 5872 5873 5874 5875 5876 5877 5879 5880 5881 5883 5884 5886 5888 5889 5890 5891 5891 5892 5892 5893 5894 5894
5841 5842 5843 5845 5846 5847 5848 5850 5851 5852 5853 5856 5860 5863 5864 5864 5864 5864 5865 5866 5868 5869 5871 5872 5874 5875 5876 5877 5878 5879 5880 5882 5883 5885 5886 5887 5888 5888 5889 5889 5890 5890
5837 5839 5840 5842 5843 5844 5845 5846 5847 5849 5851 5854 5857 5858 5859 5860 5861 5861 5861 5862 5863 5865 5866 5868 5869 5871 5872 5873 5874 5875 5876 5878 5879 5881 5882 5883 5884 5885 5885 5886 5886 5886
Wind_Speed
16 16 18 19 20 19 19 22 23 23 22 21 20 19 19 18 18 17 17 18 18 18 19 20 20 19 18 17 17 17 17 16 15 14 14 14 14 14 14 15 14 13
18 17 17 19 19 19 18 20 21 21 21 20 21 20 19 19 18 18 19 19 19 20 20 19 19 18 19 18 18 18 17 16 15 15 15 14 14 15 15 15 14 12
18 18 18 18 19 19 18 18 18 19 19 19 20 20 20 20 20 20 20 20 19 19 19 18 17 17 18 19 19 18 18 17 16 15 15 15 15 15 14 14 12 11
16 17 18 19 19 19 18 18 18 18 18 19 19 19 19 20 20 20 20 20 19 19 18 17 17 17 18 19 19 19 18 18 17 16 15 15 15 14 13 11 10 9
14 15 16 17 18 19 19 19 18 18 19 19 19 19 19 19 19 18 18 19 19 18 18 18 18 18 18 19 19 19 19 18 17 16 15 15 14 13 12 10 8 8
12 13 14 15 17 18 18 19 19 19 19 19 19 19 19 19 18 18 18 18 18 18 18 19 19 18 19 19 18 18 18 18 17 16 15 14 14 12 11 10 9 8
11 11 12 13 15 16 17 19 19 20 20 20 20 20 20 20 19 19 18 18 18 19 19 19 19 19 19 18 18 17 17 16 16 16 15 14 13 12 11 10 9 9
10 10 10 11 12 14 15 17 18 19 19 19 20 20 20 20 19 19 19 18 18 19 19 18 18 18 18 17 17 16 15 15 15 15 15 14 13 11 11 11 10 10
10 9 9 9 10 12 13 15 15 16 17 18 19 19 19 19 18 18 18 18 18 18 18 17 17 17 17 16 16 16 15 15 15 15 14 13 12 11 11 11 11 10
11 10 10 10 10 11 12 13 14 15 15 16 17 17 17 17 17 17 17 17 17 17 17 17 16 16 16 16 15 15 15 15 15 15 14 13 12 12 12 11 11 11
14 12 12 12 11 12 12 13 14 14 15 15 16 16 16 16 17 17 17 17 17 17 17 17 16 16 16 16 16 16 16 15 15 14 14 13 13 13 12 12 12 11
17 16 15 14 13 13 13 13 14 15 15 16 16 16 16 16 17 17 17 17 17 17 17 17 17 16 16 16 16 16 16 15 15 14 14 13 13 13 13 13 13 12
20 19 18 17 16 15 14 14 14 15 15 16 16 17 17 16 16 16 17 17 17 17 17 17 17 17 17 16 16 16 16 15 15 15 14 14 13 14 14 13 13 13
21 21 20 19 18 17 16 15 15 15 16 16 16 16 17 17 16 16 16 16 17 17 18 18 17 17 17 17 16 16 16 16 15 15 15 15 14 14 14 14 14 14
22 22 21 21 19 18 17 17 17 16 16 16 16 16 17 16 16 16 16 16 17 17 17 17 17 17 18 17 17 17 17 16 16 16 16 16 15 15 14 14 14 14
22 22 23 22 21 19 18 17 17 17 17 16 16 17 17 17 16 16 16 16 17 17 17 17 17 18 18 18 17 17 17 17 16 16 16 16 16 15 15 14 14 14
23 23 23 23 23 22 20 19 18 18 18 17 17 17 17 17 17 16 16 17 17 17 17 17 17 17 17 17 17 17 17 17 16 16 16 16 16 15 15 14 14 14
25 25 25 25 25 24 22 21 20 19 19 18 18 18 17 17 17 16 16 16 16 16 16 16 16 16 16 17 17 17 17 17 17 17 17 16 15 15 15 15 15 15
26 26 26 26 26 25 25 24 22 21 20 19 19 19 19 18 18 18 17 17 16 16 16 16 17 17 17 17 18 18 18 19 19 18 17 16 15 15 16 16 17 17
27 26 27 27 28 28 27 27 25 23 23 22 22 21 20 19 19 20 19 19 18 18 18 18 18 18 18 18 19 19 19 19 19 18 17 16 16 16 16 17 18 18
28 27 28 28 29 29 29 28 27 26 25 25 24 23 22 22 22 23 23 22 22 21 21 20 19 19 19 19 20 20 20 20 19 19 18 17 17 18 18 18 19 19
30 30 29 29 30 30 30 29 28 28 28 27 27 26 26 26 26 25 25 25 25 25 24 23 23 22 21 21 21 21 21 21 20 20 20 19 20 20 20 20 20 20
32 31 30 30 30 30 29 29 29 29 29 29 29 28 29 29 28 27 27 27 28 28 27 27 26 25 24 23 23 23 23 22 21 21 22 22 22 22 22 22 21 21
31 33 32 31 31 30 29 29 29 30 31 31 30 30 30 31 31 31 30 30 29 29 29 28 28 27 27 26 25 25 24 23 23 23 24 24 24 25 24 24 23 23
29 31 33 33 32 31 31 31 31 32 32 30 29 30 30 31 32 33 33 32 31 30 30 30 29 28 28 28 28 27 27 27 27 26 26 26 27 27 26 26 25 25
29 30 31 32 33 33 33 33 32 33 32 29 28 30 32 33 34 35 35 35 34 33 32 31 31 31 31 30 30 30 30 30 30 29 28 29 29 29 28 28 27 28
Wind_Direction
144 143 143 145 149 152 152 149 150 153 155 159 163 170 175 179 183 186 186 187 190 191 192 195 195 197 198 196 197 199 199 199 199 199 200 201 202 202 202 204 205 207
142 144 144 145 148 153 154 151 151 154 158 162 167 173 178 183 186 188 189 191 193 194 195 195 194 196 198 196 197 200 200 199 199 200 201 202 203 202 203 204 204 202
147 148 149 151 153 156 158 158 159 161 164 168 172 176 180 184 187 189 190 191 193 195 195 195 196 199 200 200 200 203 203 202 202 202 202 204 205 204 204 204 200 195
149 150 153 155 156 159 162 165 168 167 168 172 174 178 182 185 189 190 189 190 194 196 195 196 198 199 201 202 202 203 203 203 203 203 204 206 207 206 205 202 195 188
149 151 154 154 155 159 163 167 171 171 171 174 176 180 185 189 192 192 190 192 194 195 195 196 198 198 199 200 200 201 201 201 202 203 205 207 206 205 202 201 196 192
155 155 157 158 158 160 164 168 171 172 173 176 178 183 188 191 194 195 195 195 195 196 196 196 196 197 198 199 200 200 201 202 203 205 206 207 205 202 199 201 201 201
165 165 166 168 167 167 169 172 172 173 175 176 180 184 188 191 195 197 197 196 196 196 196 195 195 196 197 198 199 200 202 203 204 205 206 205 203 201 201 203 205 206
174 177 178 179 179 178 179 180 178 178 177 178 181 185 188 191 194 197 197 197 197 197 197 197 196 196 196 197 198 200 203 203 204 205 205 204 204 203 205 207 208 211
185 188 191 194 195 192 191 189 187 186 184 185 186 187 189 191 193 196 198 199 200 200 200 200 198 197 197 198 199 202 204 205 206 207 206 206 206 206 209 212 212 213
196 200 203 206 210 208 204 201 198 195 195 195 193 192 193 194 194 196 198 200 202 203 204 204 203 203 202 202 203 205 208 209 209 210 210 209 209 209 211 213 214 215
200 207 212 213 216 218 217 213 208 205 203 202 201 200 198 197 196 197 198 200 202 203 205 205 205 206 207 207 208 209 211 213 212 213 213 213 212 211 213 215 216 216
202 206 213 216 218 221 223 221 218 214 210 206 205 206 205 202 200 199 199 201 202 203 203 204 204 206 208 210 211 211 212 213 213 214 215 216 215 214 216 218 218 217
209 208 212 215 217 219 223 225 224 221 217 212 209 208 209 208 205 202 202 203 203 203 203 203 204 206 208 211 213 214 213 213 213 215 217 218 218 218 219 220 220 219
217 215 214 216 218 218 220 224 226 225 221 217 213 210 209 210 208 206 204 205 204 203 203 203 205 207 210 212 213 215 216 216 216 216 217 219 219 219 220 221 221 221
223 223 221 220 221 221 221 223 225 226 224 219 215 213 211 210 210 208 206 205 205 204 204 205 206 209 211 212 214 215 216 218 219 217 216 218 218 217 217 217 216 216
225 227 228 227 225 224 224 225 227 227 225 222 218 216 213 211 210 208 205 204 204 205 206 207 208 210 211 212 213 214 215 216 216 215 214 214 214 212 211 210 210 213
226 227 229 231 231 228 226 226 229 230 227 224 222 219 217 215 212 208 205 203 203 204 205 206 207 209 210 210 209 209 210 210 210 211 210 210 209 208 207 208 212 218
226 226 227 229 231 232 229 225 226 229 230 227 224 220 217 215 213 210 206 203 202 203 204 206 206 207 208 207 206 207 208 208 209 210 211 211 211 212 212 214 219 225
222 223 225 226 227 229 230 227 225 226 229 229 226 224 219 214 211 211 209 206 204 205 208 210 211 211 211 210 210 211 212 213 214 214 215 216 218 218 218 220 225 231
218 220 223 223 223 226 229 229 226 225 227 228 228 226 223 217 212 210 209 209 208 208 212 216 219 219 219 218 218 218 220 220 221 223 224 224 225 227 227 227 230 236
221 221 222 223 225 227 229 229 228 226 226 228 228 226 223 221 216 212 210 209 209 210 212 217 222 225 227 228 227 227 227 226 227 230 232 231 233 234 234 234 237 242
227 225 225 226 229 230 230 229 229 227 226 227 228 227 224 223 220 217 215 213 211 212 212 214 219 224 227 230 232 233 233 230 230 234 237 237 238 239 241 242 244 248
230 230 230 231 232 232 231 230 230 229 228 227 228 228 227 226 225 223 220 219 218 216 215 215 218 221 223 227 231 235 237 235 234 235 238 241 243 245 247 249 252 255
232 233 233 233 232 231 232 233 232 232 231 229 228 230 229 228 228 227 225 224 224 223 222 222 222 223 225 226 229 233 237 237 236 235 237 241 245 248 251 254 257 260
231 232 232 231 230 229 230 232 233 233 234 233 233 237 238 235 233 232 230 227 227 227 228 229 229 230 231 231 231 233 235 237 238 237 238 240 244 248 251 255 258 260
230 230 231 231 231 230 231 232 232 234 236 235 234 237 241 242 240 238 235 233 230 229 229 231 232 233 235 235 235 236 236 238 240 241 242 244 246 248 251 254 258 260